Flag for Afghanistan Weather past 2 weeks in Herat, Afghanistan

Now
55 °F

Passing clouds.


Feels Like: 55 °F
Forecast: 39 / 53 °F
Wind: 1 mph from West

Location: Herat Airport

Current Time: Mar 5, 2015 at 7:54:09 PM

Latest Report: Mar 5, 2015 at 7:25 PM


Visibility: N/A

Pressure: 30.01 "Hg

Humidity: 47%

Dew point: 36 °F

Location of HeratLocation

Historic Weather in Herat — Graph

°F

Herat temperature yesterday

Maximum temperature yesterday: 59 °F (at 2:24 PM)
Minimum temperature yesterday: 34 °F (at 5:24 AM)
Average temperature yesterday: 46 °F

Past Weeks' High & Low Weather Summary

 TemperatureHumidityPressure
High75 °F (Feb 21, 2:17 PM)100% (Feb 24, 2:25 AM)30.24 "Hg (Feb 24, 2:25 AM)
Low25 °F (Feb 24, 7:25 AM)14% (Feb 21, 4:25 PM)29.68 "Hg (Feb 21, 4:24 AM)
Average45 °F65%30.00 "Hg
* Reported Feb 18 6:24 PM — Mar 5 6:25 PM, Herat, Weather by CustomWeather, © 2015

Note: Actual official high and low records may vary slightly from our data, if they occured in-between our weather recording intervals... More about our weather records

Advertising

Herat weather history for previous 24 hours

 ConditionsComfort  
Time TempWeatherWind HumidityBarometerVisibility
6:25 PM
Thu, Mar 5
57 °FPartly sunny.2 mph44%29.98 "HgN/A
5:25 PM57 °FPassing clouds.3 mph41%29.98 "HgN/A
4:25 PM61 °FScattered clouds.5 mph34%29.98 "HgN/A
3:25 PM61 °FScattered clouds.6 mph36%29.98 "HgN/A
2:25 PM57 °FScattered clouds.6 mph41%29.98 "HgN/A
1:25 PM61 °FPassing clouds.5 mph34%30.01 "HgN/A
12:25 PM61 °FPassing clouds.3 mph39%30.04 "HgN/A
11:24 AM55 °FPassing clouds.5 mph51%30.04 "HgN/A
10:24 AM52 °FSunny.3 mph62%30.07 "Hg10 mi
9:24 AM48 °FSunny.2 mph71%30.04 "Hg10 mi
8:24 AM45 °FPassing clouds.3 mph76%30.04 "Hg4 mi
7:24 AM41 °FPassing clouds.3 mph87%30.01 "Hg4 mi
6:24 AM39 °FPassing clouds.3 mph87%30.01 "Hg4 mi
5:24 AM45 °FClear.3 mph76%29.98 "Hg10 mi
4:24 AM43 °FClear.7 mph81%29.98 "Hg10 mi
3:24 AM41 °FClear.7 mph87%29.98 "Hg10 mi
2:24 AM43 °FClear.2 mph87%29.98 "Hg10 mi
1:24 AM45 °FFog.6 mph76%30.01 "HgN/A
12:25 AM45 °FClear.5 mph76%29.98 "Hg10 mi
11:25 PM
Wed, Mar 4
45 °FFog.No wind76%29.98 "HgN/A
10:24 PM46 °FFog.2 mph76%29.98 "HgN/A
9:25 PM48 °FPassing clouds.3 mph71%29.95 "HgN/A
8:24 PM50 °FPassing clouds.3 mph62%29.95 "HgN/A
7:25 PM52 °FPassing clouds.6 mph67%29.92 "HgN/A
Weather by CustomWeather, © 2015

See weather overviewHow to use our weather pages